Tracking 28126 objects as of 1-Oct-2023
HD Live streaming from Space Station
objects crossing your sky now

STARLINK-2506

Track STARLINK-2506 now!
10-day predictions
STARLINK-2506 is classified as:


NORAD ID: 48315
Int'l Code: 2021-036AR
Perigee: 553.3 km
Apogee: 555.5 km
Inclination: 53.1 °
Period: 95.6 minutes
Semi major axis: 6925 km
RCS: Unknown
Launch date: April 29, 2021
Source: United States (US)
Launch site: AIR FORCE EASTERN TEST RANGE (AFETR)
Your satellite tracking list
Your tracking list is empty




NASA's NSSDC Master Catalog

Two Line Element Set (TLE):
1 48315U 21036AR  23273.76780467  .00013473  00000-0  92219-3 0  9999
2 48315  53.0533 131.1127 0001546  81.0712 279.0452 15.06378726134533
Source of the keplerian elements: AFSPC